Location: Angwan Shehu
(11.2514°N, 7.4613°E)
Time: 02:37:18
(UTC+00:00)

Cosmos 1666 Rocket - Pass Details

Date: 14 November 2019
Orbit: 603 x 634 km, 82.5° (Epoch: 09 December)

Event Time Altitude Azimuth Distance (km) Brightness Sun altitude
Rises 17:50:47 0° 5° (N) 2,857 6.7 -12.0°
Reaches altitude 10° 17:53:04 10° 11° (NNE) 1,950 5.8 -12.5°
Maximum altitude 17:57:12 46° 85° (E) 814 3.7 -13.5°
Drops below altitude 10° 18:01:19 10° 159° (SSE) 1,941 6.1 -14.5°
Sets 18:03:35 0° 165° (SSE) 2,843 7.0 -15.0°
